This is the latest recevied weather packets stored in our database for station/object W8BS. If no packets are shown the sender has not sent any weather packets the latest 10 day(s).
| Time | Temp. | Humidity | Pressure | Rain* | Wind** | Luminosity | Snow |
|---|---|---|---|---|---|---|---|
| 1777890088 | 7.78° C | 81% | 1013.2 hPa | 0 mm | - | 0 W/m² | - |
| 1777889786 | 7.78° C | 81% | 1013.1 hPa | 0 mm | - | 0 W/m² | - |
| 1777889483 | 7.22° C | 81% | 1013.3 hPa | 0 mm | - | 0 W/m² | - |
| 1777889181 | 7.22° C | 81% | 1013.7 hPa | 0 mm | - | 0 W/m² | - |
| 1777888879 | 7.22° C | 83% | 1013.7 hPa | 0 mm | - | 0 W/m² | - |
| 1777888575 | 6.67° C | 82% | 1013.4 hPa | 0 mm | - | 0 W/m² | - |
| 1777888271 | 6.67° C | 82% | 1013.5 hPa | 0 mm | - | 0 W/m² | - |
| 1777887968 | 6.67° C | 83% | 1013.4 hPa | 0 mm | - | 0 W/m² | - |
| 1777887665 | 6.67° C | 83% | 1013.7 hPa | 0 mm | - | 0 W/m² | - |
| 1777887361 | 6.67° C | 82% | 1013.8 hPa | 0 mm | - | 0 W/m² | - |
| 1777887057 | 7.22° C | 83% | 1013.9 hPa | 0 mm | - | 0 W/m² | - |
| 1777886753 | 6.67° C | 82% | 1013.5 hPa | 0 mm | - | 0 W/m² | - |
| 1777886450 | 7.22° C | 83% | 1013.7 hPa | 0 mm | - | 0 W/m² | - |
| 1777886148 | 7.22° C | 80% | 1013.5 hPa | 0 mm | - | 0 W/m² | - |
| 1777885845 | 7.22° C | 83% | 1013.7 hPa | 0 mm | - | 0 W/m² | - |
| 1777885544 | 7.22° C | 81% | 1013.5 hPa | 0 mm | - | 0 W/m² | - |
| 1777885241 | 7.22° C | 84% | 1013.7 hPa | 0 mm | - | 0 W/m² | - |
| 1777884939 | 7.22° C | 82% | 1013.8 hPa | 0 mm | - | 0 W/m² | - |
| 1777884635 | 7.22° C | 83% | 1013.9 hPa | 0 mm | - | 0 W/m² | - |
| 1777884332 | 6.67° C | 84% | 1013.9 hPa | 0 mm | - | 0 W/m² | - |
| 1777884027 | 7.22° C | 84% | 1014 hPa | 0 mm | - | 0 W/m² | - |
| 1777883726 | 7.22° C | 84% | 1013.9 hPa | 0 mm | - | 0 W/m² | - |
| 1777883422 | 7.78° C | 83% | 1014 hPa | 0 mm | - | 0 W/m² | - |
| 1777883118 | 8.33° C | 80% | 1014 hPa | 0 mm | - | 0 W/m² | - |
| 1777882815 | 8.33° C | 73% | 1013.9 hPa | 0 mm | - | 0 W/m² | - |
* Rain latest hour (hover to see other rain measurements)
** Current wind speed in m/s (hover to see current wind gust speed)